Header for Extended Forecast Station List Page

Search by: ID | Name | Date | Parm | Value | Avg | % Avg
Sort by: ID | Name | Date | Parm | Value | Avg | % Avg

Enter search or view all records.

Click on id for station plot
#IDNameDateParmValueAvg% Avg
0MILI1SNAKE-AT MILNER09-21-2020DISCHARGE (KAF)94112
1BULO3BULLY CREEK-BULLY CREEK DAM09-21-2020INFLOW (KAF)0116
2PRTI1PRIEST-NEAR PRIEST RIVER09-21-2020DISCHARGE (KAF)8822040
3WGCM8MF FLATHEAD-NEAR WEST GLACIER09-21-2020DISCHARGE (KAF)7818143
4MAGI1BIG WOOD-MAGIC DAM09-21-2020INFLOW (KAF)122745
5BIGI1BOISE-AT GLENWOOD BRIDGE09-21-2020DISCHARGE (KAF)245047
6STRM8ST. REGIS-NEAR ST. REGIS09-21-2020DISCHARGE (KAF)203457
7HHWM8SF FLATHEAD-HUNGRY HORSE DAM09-21-2020INFLOW (KAF)14624360
8HALI1BIG WOOD-AT HAILEY09-21-2020DISCHARGE (KAF)264361
9SPDI1CLEARWATER-AT SPALDING09-21-2020DISCHARGE (KAF)885138064
10FCFM8NF FLATHEAD-NEAR COLUMBIA FALLS09-21-2020DISCHARGE (KAF)13720965
11KERM8FLATHEAD-SELI’Š KSANKA QLISPE’ DAM09-21-2020INFLOW (KAF)989149966
12TRYO3GRANDE RONDE-TROY09-21-2020DISCHARGE (KAF)16124566
13COEI1COEUR D ALENE-COEUR D ALENE LAKE09-21-2020INFLOW (KAF)32847469
14DWRI1NF CLEARWATER-DWORSHAK DAM09-21-2020INFLOW (KAF)29743369
15LGDW1SNAKE-LOWER GRANITE DAM09-21-2020INFLOW (KAF)4743688369
16LGSW1SNAKE-LITTLE GOOSE DAM09-21-2020INFLOW (KAF)4743692269
17LMNW1SNAKE-LOWER MONUMENTAL DAM09-21-2020INFLOW (KAF)4770696069
18IHDW1SNAKE-ICE HARBOR DAM09-21-2020INFLOW (KAF)4772687869
19CFMM8FLATHEAD-AT COLUMBIA FALLS09-21-2020DISCHARGE (KAF)861123370
20UNDW1WHITE SALMON-NEAR UNDERWOOD09-21-2020DISCHARGE (KAF)13819870
21ALFW1PEND OREILLE-ALBENI FALLS DAM09-21-2020INFLOW (KAF)2893400272
22WSRI1WEISER-NEAR WEISER09-21-2020DISCHARGE (KAF)405672
23ANAW1SNAKE-NEAR ANATONE09-21-2020DISCHARGE (KAF)3858533172
24MONO3NF JOHN DAY-AT MONUMENT09-21-2020DISCHARGE (KAF)486772
25NOXM8CLARK FORK-NOXON RAPIDS DAM09-21-2020INFLOW (KAF)2453335273
26LWRI1LITTLE WOOD-LITTLE WOOD DAM09-21-2020INFLOW (KAF)111573
27ORFI1CLEARWATER-AT OROFINO09-21-2020DISCHARGE (KAF)41757473
28LLKW1SPOKANE-AT LONGLAKE09-21-2020INFLOW (KAF)68492674
29JLKW4SNAKE-JACKSON LAKE AT DAM09-21-2020INFLOW (KAF)8311274
30SWAI1SNAKE-BELOW SWAN FALLS09-21-2020DISCHARGE (KAF)1857246675
31PARI1BOISE-NEAR PARMA09-21-2020DISCHARGE (KAF)16421975
32SERO3JOHN DAY-AT SERVICE CK09-21-2020DISCHARGE (KAF)9713075
33CABI1CLARK FORK-CABINET GORGE DAM09-21-2020INFLOW (KAF)2687347977
34RIDI1WILLOW CREEK-RIRIE DAM09-21-2020INFLOW (KAF)6877
35HWRI1BIG LOST-AT HOWELL RANCH NEAR CHILLY09-21-2020DISCHARGE (KAF)182477
36TNAW1TEANAWAY-BELOW FORKS09-21-2020DISCHARGE (KAF)222878
37BITM8BITTERROOT-NEAR MISSOULA09-21-2020DISCHARGE (KAF)18523579
38WEII1SNAKE-AT WEISER09-21-2020DISCHARGE (KAF)2782352079
39SATI1ST MARIES-NEAR SANTA09-21-2020DISCHARGE (KAF)202481
40UMTW1YAKIMA-AT UMTANUM09-21-2020DISCHARGE (KAF)21726781
41EASW1YAKIMA-AT EASTON09-21-2020DISCHARGE (KAF)496082
42BRNI1SNAKE-BROWNLEE DAM09-21-2020INFLOW (KAF)2940358882
43HOTI1BRUNEAU-NEAR HOT SPRINGS09-21-2020DISCHARGE (KAF)212583
44DEDI1DEADWOOD-NEAR LOWMAN09-21-2020INFLOW (KAF)151983
45BERO3MALHEUR-AGENCY VALLEY DAM09-21-2020INFLOW (KAF)111385
46PITW1KLICKITAT-NEAR PITT09-21-2020DISCHARGE (KAF)19322785
47MODO3DESCHUTES-AT MOODY NR BIGGS09-21-2020DISCHARGE (KAF)1093127686
48BONO3COLUMBIA-BONNEVILLE DAM09-21-2020INFLOW (KAF)286823281087
49SRGM8CLARK FORK-AT ST REGIS09-21-2020DISCHARGE (KAF)68577788
50PARW1YAKIMA-NEAR PARKER09-21-2020DISCHARGE (KAF)31535689
51BUDW1BUMPING-BUMPING LAKE DAM09-21-2020INFLOW (KAF)283190
52TDAO3COLUMBIA-THE DALLES DAM09-21-2020INFLOW (KAF)281703113390
53OWYO3OWYHEE-OWYHEE DAM09-21-2020INFLOW (KAF)616791
54CSDI1NF PAYETTE-CASCADE DAM09-21-2020INFLOW (KAF)829091
55EMMI1PAYETTE-NEAR EMMETT09-21-2020DISCHARGE (KAF)32135291
56GIBO3UMATILLA-NEAR GIBBON09-21-2020DISCHARGE (KAF)222491
57BELM8CLARK FORK-BELOW MISSOULA09-21-2020DISCHARGE (KAF)55760292
58CLFW1NACHES-NEAR CLIFFDEL09-21-2020DISCHARGE (KAF)859292
59RILW1TIETON-RIMROCK LAKE NEAR RIMROCK09-21-2020INFLOW (KAF)576292
60KIOW1YAKIMA-AT KIONA09-21-2020DISCHARGE (KAF)56661093
61WHBI1SALMON-AT WHITEBIRD09-21-2020DISCHARGE (KAF)1034110793
62ARAI1SF BOISE-ANDERSON RANCH DAM09-21-2020INFLOW (KAF)677294
63LYDM8KOOTENAI-LIBBY DAM09-21-2020INFLOW (KAF)988103695
64TEAI1TETON-NEAR ST. ANTHONY09-21-2020DISCHARGE (KAF)11311895
65BONM8BLACKFOOT-NEAR BONNER09-21-2020DISCHARGE (KAF)13714396
66CHEI1FALL RIVER-NEAR CHESTER09-21-2020DISCHARGE (KAF)10410896
67MCDW1COLUMBIA-MCNARY DAM09-21-2020INFLOW (KAF)267032777496
68ANTI1HENRYS FORK-AT ST. ANTHONY09-21-2020DISCHARGE (KAF)32533697
69JDAO3COLUMBIA-JOHN DAY DAM09-21-2020INFLOW (KAF)276002847297
70PDTO3UMATILLA-AT PENDLETON09-21-2020DISCHARGE (KAF)484998
71REXI1HENRYS FORK-AT REXBURG09-21-2020DISCHARGE (KAF)42242799
72PIHI1PORTNEUF-AT POCATELLO09-21-2020DISCHARGE (KAF)545499
73CHJW1COLUMBIA-CHIEF JOSEPH DAM09-21-2020INFLOW (KAF)1998419990100
74HEII1SNAKE-NEAR HEISE09-21-2020DISCHARGE (KAF)741741100
75WELW1COLUMBIA-WELLS DAM09-21-2020INFLOW (KAF)2045920325101
76RRHW1COLUMBIA-ROCKY REACH DAM09-21-2020INFLOW (KAF)2095920808101
77AFRI1SNAKE-AMERICAN FALLS RESERVOIR09-21-2020INFLOW (KAF)14261417101
78SIFI1SNAKE-AB EAGLE ROCK NR IDAHO FALLS09-21-2020DISCHARGE (KAF)875853103
79BFTI1SNAKE-NEAR BLACKFOOT09-21-2020DISCHARGE (KAF)754730103
80ABOM8CLARK FORK-ABOVE MISSOULA09-21-2020DISCHARGE (KAF)373360104
81HODO3HOOD-NEAR TUCKER BRIDGE09-21-2020DISCHARGE (KAF)189180105
82IPDI1HENRYS FORK-ISLAND PARK DAM09-21-2020INFLOW (KAF)131122107
83KADW1KACHESS-KACHESS DAM09-21-2020INFLOW (KAF)4037108
84SNAI1SNAKE-AT BLACKFOOT09-21-2020DISCHARGE (KAF)733679108
85SHYI1SNAKE-NEAR SHELLEY09-21-2020DISCHARGE (KAF)880802110
86GCDW1COLUMBIA-GRAND COULEE DAM09-21-2020INFLOW (KAF)1931817396111
87PATW1METHOW-NEAR PATEROS09-21-2020DISCHARGE (KAF)112101111
88PRWW1COLUMBIA-PRIEST RAPIDS DAM09-21-2020INFLOW (KAF)2140919361111
89LAUW1KETTLE-AT LAURIER09-21-2020DISCHARGE (KAF)144128112
90WANW1COLUMBIA-WANAPUM DAM09-21-2020INFLOW (KAF)2137019065112
91MYKO3MCKAY CREEK-NEAR PILOT ROCK09-21-2020DISCHARGE (KAF)109112
92PLDI1SF SNAKE-PALISADES DAM09-21-2020INFLOW (KAF)817723113
93TCHW1WALLA WALLA-NEAR TOUCHET09-21-2020DISCHARGE (KAF)8070113
94DLGM8CLARK FORK-AT DEER LODGE09-21-2020DISCHARGE (KAF)7463117
95ALPW4SNAKE-NEAR ALPINE09-21-2020DISCHARGE (KAF)542459118
96KEDW1YAKIMA-KEECHELUS LAKE09-21-2020INFLOW (KAF)5546120
97RCCM8ROCK CREEK-NEAR CLINTON09-21-2020DISCHARGE (KAF)6853127
98NACW1NACHES-NEAR NACHES09-21-2020DISCHARGE (KAF)9273127
99TONW1OKANOGAN-NEAR TONASKET09-21-2020DISCHARGE (KAF)358278129
100CLUW1CLE ELUM-CLE ELUM LAKE09-21-2020INFLOW (KAF)12092130
101ARDW1ENTIAT-NEAR ARDENVOIR09-21-2020DISCHARGE (KAF)2922132
102JKSW4SNAKE-NEAR JACKSON09-21-2020DISCHARGE (KAF)485366133
103PESW1WENATCHEE-AT PESHASTIN09-21-2020DISCHARGE (KAF)367273134
104WRMO3MALHEUR-WARM SPRINGS DAM09-21-2020INFLOW (KAF)1913142
105LEOI1KOOTENAI-AT LEONIA09-21-2020DISCHARGE (KAF)26271738151
106CHDW1CHELAN-LAKE CHELAN DAM09-21-2020INFLOW (KAF)299158190
107UMAO3UMATILLA-NEAR UMATILLA09-21-2020DISCHARGE (KAF)9948205
108MACI1BIG LOST-MACKAY RESERVOIR NEAR MACKAY09-21-2020INFLOW (KAF)339389
109BFEI1KOOTENAI-AT BONNERS FERRY09-21-2020STAGE (FT)MMM
110DRMM8CLARK FORK-NR DRUMMOND09-21-2020DISCHARGE (KAF)154MM
111HOPI1PEND OREILLE-PEND OREILLE LAKE NR HOPE09-21-2020LAKE ELEVATION (FT)MMM
112SPOW1SPOKANE-AT SPOKANE09-21-2020DISCHARGE (KAF)504MM
113SJMI1ST JOE-AT ST MARIES09-21-2020STAGE (FT)MMM
114CIBW1COLUMBIA-AT INTL BOUNDARY09-21-2020DISCHARGE (KAF)18399MM
115LUCI1BOISE-LUCKY PEAK DAM09-21-2020INFLOW (KAF)37MM